Location: Breuil-Mingot
(46.5878°N, 0.3991°E)
Time: 22:54:49
(UTC+00:00)

Daily predictions for brighter satellites

Satellite Brightness Start Highest point End
(mag) Time Altitude Azimuth Time Altitude Azimuth Time Altitude Azimuth
CZ-2C R/B 4.3 16:38:50 10° N 16:43:26 31° WNW 16:47:57 10° SW
USA 306 1.0 16:44:03 10° WNW 16:46:17 82° NNE 16:48:24 10° ESE
Cosmos 1544 2.7 16:43:24 10° N 16:46:40 83° E 16:49:54 10° S
SJ-7 4.4 16:43:53 10° SSE 16:47:47 57° ENE 16:51:45 10° N
Cosmos 1238 Rocket 3.9 16:45:37 10° SSW 16:49:01 38° W 16:52:02 10° N
ATLAS CENTAUR R/B 2.6 16:46:17 10° NW 16:50:09 57° NE 16:57:31 10° ESE
SL-16 R/B 2.8 16:44:54 10° NNW 16:50:32 65° WSW 16:56:07 10° SSE
Cosmos 1602 4.1 16:49:53 10° N 16:53:23 38° ENE 16:56:52 10° SE
SL-8 R/B 3.8 16:49:20 10° WNW 16:54:07 86° SSW 16:58:55 10° ESE
USA 305 2.7 16:51:08 10° NW 16:54:55 58° NNE 16:58:42 10° ESE
RESURS DK-1 4.4 16:54:17 10° NNE 16:54:57 10° NE 16:55:37 10° NE
Cosmos 1607 4.3 16:49:20 10° SW 16:55:40 73° NW 17:02:09 10° NE
CZ-4B R/B 4.2 16:54:34 10° ESE 16:58:53 29° ENE 17:03:08 10° N
Cosmos 1782 4.4 16:58:33 10° ESE 17:00:52 15° E 17:03:02 11° NE
Cosmos 1943 3.3 16:55:58 10° NNW 17:01:29 52° ENE 17:06:59 10° SE
ATLAS 2AS CENTAUR R/B 3.5 16:56:43 10° NNW 17:02:50 31° NNE 17:08:41 10° E
Helios 1A 4.2 16:59:37 10° NE 17:02:56 23° E 17:06:14 10° SSE
Cosmos 1500 3.0 17:01:35 10° N 17:05:08 87° W 17:08:40 10° S
SMAP 3.1 17:00:50 10° SSE 17:05:25 63° ENE 17:10:02 10° N
Helios 1B rocket 2.8 17:02:01 10° S 17:05:55 67° WSW 17:09:52 10° NNW
CZ-4B R/B 3.7 17:05:21 10° SSE 17:08:49 51° ENE 17:12:23 10° N
Cosmos 2297 Rocket 4.1 17:07:38 10° W 17:12:01 22° NW 17:16:26 10° N
Cosmos 407 Rocket 3.8 17:08:04 10° N 17:12:59 42° ENE 17:17:48 10° SE
Radarsat Rocket 4.5 17:08:10 10° SE 17:13:24 36° ENE 17:18:55 10° N
SOZ 4.4 17:11:54 10° W 17:14:01 51° NNW 17:16:19 15° ENE
Cosmos 405 Rocket 4.1 17:11:26 10° SW 17:15:01 40° WNW 17:18:40 10° N
Cosmos 2219 4.2 17:12:55 10° SW 17:18:18 45° NW 17:23:43 10° NNE
ISS -2.4 17:15:28 10° WNW 17:18:39 40° SW 17:21:49 10° SE
Cosmos 2251 Rocket 3.7 17:15:34 10° NNW 17:20:48 52° ENE 17:26:02 10° SE
Lacrosse 5 2.8 17:24:29 10° S 17:28:56 32° SE 17:31:43 19° ENE
Cosmos-2242 2.9 17:26:14 10° S 17:30:32 69° E 17:34:51 10° NNE
COSMO-SKYMED 1 3.3 17:29:30 15° NE 17:32:27 31° E 17:36:18 10° SSE
Lacrosse 4 Rocket 1.4 17:28:51 10° NNW 17:33:13 84° ENE 17:37:27 10° SSE
Cosmos 2082 4.4 17:27:50 10° SW 17:33:18 54° WNW 17:38:51 10° NNE
Cosmos 2058 Rocket 4.5 17:29:28 10° SW 17:33:38 40° WNW 17:37:49 10° N
Cosmos 1833 Rocket 4.5 17:31:11 10° N 17:33:40 13° NE 17:33:48 13° NE
APEX 2.3 17:35:53 10° SSW 17:38:52 71° ESE 17:39:58 33° NE
Meteor 2-2 Rocket 4.3 17:34:34 10° S 17:40:12 60° E 17:46:00 10° NNE
Cosmos 2221 3.6 17:37:50 10° SE 17:41:02 24° E 17:41:02 24° E
Cosmos 2344 3.5 17:33:43 10° SSW 17:41:16 64° ESE 17:47:04 17° NE
USA 234 3.4 17:37:35 18° ENE 17:42:30 62° SE 17:48:57 10° SW
Meteor 1-25 Rocket 4.1 17:36:59 10° N 17:42:40 74° ENE 17:48:14 10° SSE
Cosmos 1812 2.5 17:39:58 10° S 17:43:39 86° W 17:47:21 10° N
Cosmos 1190 Rocket 4.2 17:39:58 10° NNW 17:45:06 46° ENE 17:50:10 10° SE
Cosmos 1818 3.6 17:39:51 10° SSW 17:45:12 63° ESE 17:48:46 22° NE
Cosmos 2026 Rocket 4.1 17:41:19 10° SSE 17:47:21 53° E 17:53:30 10° NNE
USA 276 1.7 17:45:29 10° W 17:47:53 54° NNW 17:48:03 52° N
Cosmos 2195 Rocket 4.4 17:48:10 10° S 17:54:25 71° E 18:00:41 10° NNE
USA 307 4.0 17:54:55 10° WNW 17:58:32 38° SW 18:02:02 10° SSE
Cosmos 1844 Rocket 2.8 17:54:02 10° S 17:59:23 50° ESE 18:02:02 28° NE
Cosmos 2263 Rocket 3.3 17:54:17 10° WSW 17:59:30 40° NW 18:04:45 10° NNE
Meteor 1-26 Rocket 4.5 17:55:24 10° SSE 18:00:37 44° E 18:04:18 19° NNE
Cosmos 1766 Rocket 3.8 18:00:03 10° N 18:04:15 44° ENE 18:08:22 10° SSE
Cosmos 1092 Rocket 3.8 17:58:43 10° S 18:04:49 73° E 18:10:57 10° NNE
Nadezhda 4 Rocket 4.4 17:58:52 10° SSW 18:04:57 63° WNW 18:11:02 10° N
YAOGAN 1 4.0 18:07:02 23° NNE 18:07:02 23° NNE 18:08:56 10° N
Cosmos 1933 3.1 18:02:11 10° S 18:06:10 71° E 18:07:55 32° NNE
Cosmos 1420 Rocket 4.2 18:01:35 10° S 18:06:36 50° ESE 18:08:27 34° NE
Cosmos 2227 4.4 18:02:14 10° SSW 18:07:59 74° WNW 18:12:31 17° NNE
Cosmos 1140 Rocket 4.4 18:04:26 10° NNW 18:09:26 50° WSW 18:14:22 10° S
ADEOS 3.5 18:05:01 10° SSE 18:10:10 65° ENE 18:15:21 10° N
Meteor 1-5 Rocket 4.2 18:07:42 10° N 18:13:23 67° ENE 18:19:13 10° SSE
Cosmos 1624 Rocket 4.1 18:09:22 10° S 18:14:25 52° ESE 18:15:39 42° ENE
BREEZE-M DEB (TANK) 3.0 18:13:57 10° W 18:15:04 28° WNW 18:15:04 28° WNW
CZ-4B R/B 4.4 18:20:41 24° N 18:20:41 24° N 18:22:29 10° N
SKYMED 2 3.5 18:18:07 25° N 18:20:40 85° WNW 18:25:00 10° SSW
Cosmos 1603 4.3 18:16:07 10° NNW 18:21:41 58° WSW 18:27:12 10° S
Cosmos 192 4.2 18:21:58 10° SSW 18:26:52 89° WNW 18:28:35 41° NNE
SL-08 R/B 3.1 18:25:44 46° NNE 18:27:05 78° ESE 18:31:44 10° S
RESURS DK-1 3.5 18:29:32 10° NNW 18:31:56 32° N 18:31:56 32° N
Cosmos 1782 3.8 18:32:37 10° SSW 18:36:21 43° WNW 18:38:16 25° NNW
Helios 1A 4.4 18:35:01 13° N 18:38:15 35° WNW 18:42:02 10° SW
Cosmos 676 Rocket 3.8 18:33:44 10° NNW 18:39:04 78° ENE 18:40:05 58° SE
EO 1 Delta rocket 4.5 18:42:08 10° S 18:48:57 80° W 18:54:21 10° NNW
ATLAS 2AS CENTAUR R/B 2.5 18:47:40 10° NW 18:54:35 87° SW 18:56:38 48° SSE
CZ-4B DEB 4.1 18:53:03 37° SSE 18:55:22 90° W 19:00:57 10° NNW
Cosmos 1241 Rocket 4.4 18:53:23 10° SSW 18:59:48 89° NW 19:00:35 71° NNE
Cosmos 2056 Rocket 4.1 19:03:02 10° SW 19:08:20 57° WNW 19:09:06 52° NNW
COSMO-SKYMED 1 4.4 19:06:43 21° NNW 19:08:33 28° WNW 19:12:15 10° SW
Cosmos 1844 4.2 19:05:43 10° SW 19:11:22 56° WNW 19:12:19 50° NNW
Lacrosse 5 2.5 19:06:43 10° WSW 19:10:56 52° WNW 19:10:56 52° WNW
COSMOS 2455 3.4 19:05:58 10° SSW 19:10:14 47° S 19:10:14 47° S
Timation 2 Rocket 4.4 19:08:35 10° SW 19:14:25 54° NW 19:15:41 46° NNW
Cosmos 2221 4.2 19:14:38 10° SW 19:17:46 30° W 19:17:46 30° W
Cosmos 1833 Rocket 4.4 19:13:27 10° NNW 19:15:30 22° N 19:15:30 22° N
USA 234 3.6 19:24:56 54° N 19:25:28 55° NNW 19:31:49 10° W
Cosmos 1844 Rocket 4.2 19:38:39 10° WSW 19:43:30 30° NW 19:43:44 30° NW
Cosmos 2344 4.5 19:49:28 10° W 19:56:09 36° NNW 19:57:06 35° NNW
